Fitchburg, MA

3:02 PM EDT on June 25, 2017 (GMT -0400)
Fitchburg Municipal

Weather History for KFIT - April, 2013

Change the Weather History Date:

Wednesday, April 3, 2013

  Actual Average (KORH) Record (KORH)
Temperature  
Mean Temperature 36 °F -  
Max Temperature 45 °F 50 °F 76 °F (2010)
Min Temperature 28 °F 32 °F 13 °F (1954)
Degree Days  
Heating Degree Days 29    
Moisture  
Dew Point 11 °F    
Average Humidity 37    
Maximum Humidity 50    
Minimum Humidity 21    
Precipitation  
Precipitation 0.00 in - - ()
Sea Level Pressure  
Sea Level Pressure 30.01 in    
Wind  
Wind Speed 14 mph (West)    
Max Wind Speed 24 mph    
Max Gust Speed 33 mph    
Visibility 10 miles    
Events      
Averages and records for this station are not official NWS values.
T = Trace of Precipitation, MM = Missing Value Source: NWS Daily Summary

Daily Weather History Graph

Daily Weather History Graph

Search for Another Location

Airport or City:

Trip Planner

Search our weather history database for the weather conditions in past years. The results will help you decide how hot, cold, wet, or windy it might be!

Date:

Astronomy

Apr. 03, 2013 Rise Set
Actual Time 6:25 AM EDT 7:15 PM EDT
Civil Twilight 5:57 AM EDT 7:44 PM EDT
Nautical Twilight 5:23 AM EDT 8:18 PM EDT
Astronomical Twilight 4:47 AM EDT 8:53 PM EDT
Moon 2:12 AM EDT (4/3) 12:16 PM EDT (4/3)
Length of Visible Light 13h 47m
Length of Day
12h 49m
Last Quarter, 45% of the Moon is Illuminated
Apr 3
Last Quarter
Apr 10
New
Apr 18
First Quarter
Apr 25
Full
May 2
Last Quarter

Hourly Weather History & Observations

Time (EDT) Temp. Windchill Dew Point Humidity Pressure Visibility Wind Dir Wind Speed Gust Speed Precip Events Conditions
12:52 AM 32.0 °F 22.1 °F 14.0 °F 48% 29.94 in 10.0 mi WNW 13.8 mph 26.5 mph N/A   Overcast
1:52 AM 32.0 °F 24.2 °F 15.1 °F 50% 29.95 in 10.0 mi WNW 9.2 mph 19.6 mph N/A   Overcast
2:52 AM 32.0 °F 18.9 °F 12.9 °F 45% 29.94 in 10.0 mi West 24.2 mph 32.2 mph N/A   Mostly Cloudy
3:52 AM 30.9 °F 22.2 °F 14.0 °F 50% 29.94 in 10.0 mi West 10.4 mph 24.2 mph N/A   Scattered Clouds
4:52 AM 30.0 °F 21.1 °F 10.9 °F 45% 29.96 in 10.0 mi WNW 10.4 mph 24.2 mph N/A   Clear
5:52 AM 28.9 °F 19.8 °F 10.9 °F 47% 29.97 in 10.0 mi West 10.4 mph 18.4 mph N/A   Clear
6:52 AM 28.9 °F 21.1 °F 10.9 °F 47% 29.99 in 10.0 mi West 8.1 mph - N/A   Clear
7:52 AM 30.9 °F 22.2 °F 10.9 °F 43% 30.00 in 10.0 mi West 10.4 mph 17.3 mph N/A   Clear
8:52 AM 33.1 °F 22.2 °F 10.9 °F 40% 30.00 in 10.0 mi West 17.3 mph 28.8 mph N/A   Clear
9:52 AM 35.1 °F 24.5 °F 10.0 °F 35% 29.99 in 10.0 mi West 18.4 mph 26.5 mph N/A   Clear
10:52 AM 37.9 °F 27.1 °F 7.0 °F 28% 29.99 in 10.0 mi West 23.0 mph 33.4 mph N/A   Clear
11:52 AM 39.9 °F 30.0 °F 9.0 °F 28% 29.99 in 10.0 mi West 21.9 mph 29.9 mph N/A   Clear
12:52 PM 42.1 °F 35.7 °F 10.0 °F 27% 29.98 in 10.0 mi WNW 11.5 mph 23.0 mph N/A   Clear
1:52 PM 42.1 °F 35.7 °F 8.1 °F 25% 29.98 in 10.0 mi WSW 11.5 mph 31.1 mph N/A   Clear
2:52 PM 44.1 °F 36.8 °F 6.1 °F 21% 29.97 in 10.0 mi WNW 16.1 mph 33.4 mph N/A   Clear
3:52 PM 44.1 °F 36.2 °F 9.0 °F 24% 29.98 in 10.0 mi West 18.4 mph 24.2 mph N/A   Clear
4:52 PM 44.1 °F 37.4 °F 9.0 °F 24% 29.97 in 10.0 mi WNW 13.8 mph 25.3 mph N/A   Clear
5:52 PM 42.1 °F 33.6 °F 8.1 °F 25% 30.00 in 10.0 mi West 18.4 mph 31.1 mph N/A   Clear
6:52 PM 39.9 °F 31.4 °F 9.0 °F 28% 30.04 in 10.0 mi West 16.1 mph 27.6 mph N/A   Clear
7:52 PM 37.0 °F 27.7 °F 10.9 °F 34% 30.07 in 10.0 mi West 16.1 mph 21.9 mph N/A   Clear
8:52 PM 35.1 °F 24.8 °F 12.9 °F 40% 30.11 in 10.0 mi WNW 17.3 mph 27.6 mph N/A   Clear
9:52 PM 34.0 °F 25.0 °F 12.9 °F 42% 30.14 in 10.0 mi WNW 12.7 mph 23.0 mph N/A   Clear
10:52 PM 33.1 °F 23.4 °F 12.9 °F 43% 30.16 in 10.0 mi West 13.8 mph 20.7 mph N/A   Clear
11:52 PM 33.1 °F 26.9 °F 12.9 °F 43% 30.17 in 10.0 mi Variable 6.9 mph 16.1 mph N/A   Clear